Regional Weather Roundup
Issued by NWS Kansas City/Pleasant Hill, MO

Home | Current Version | Previous Version | Text Only | Print | Product List | Glossary On
Versions: 1 2 3 4 5 6 7 8 9 10 11 12 13 14 15 16 17 18 19 20 21 22 23 24 25 26 27 28 29 30 31 32 33 34 35 36 37 38 39 40 41 42 43 44 45 46 47 48 49 50
000
ASUS43 KEAX 301810
RWREAX

WEATHER ROUNDUP FOR EASTERN KANSAS AND NORTHWEST MISSOURI
NATIONAL WEATHER SERVICE KANSAS CITY/PLEASANT HILL MO
100 PM CDT THU MAR 30 2017

KSZ040-057-103>105-MOZ028-029-037-043-301900-
...KANSAS CITY METROPOLITAN AREA...

CITY           SKY/WX    TMP DP  RH WIND       PRES   REMARKS
K.C. INTL      CLOUDY    49  48  97 N12       29.58S
6HR MIN TEMP:  48; 6HR MAX TEMP:  52; 6HR PCP: TRACE;

K.C. DOWNTOWN  CLOUDY    52  47  83 NW5       29.57S
6HR MIN TEMP:  48; 6HR MAX TEMP:  53; 6HR PCP: TRACE;

LEES SUMMIT    CLOUDY    52  48  86 CALM      29.57S
6HR MIN TEMP:  47; 6HR MAX TEMP:  52; 6HR PCP: TRACE;

OLATHE - IXD   CLOUDY    51  47  86 N9        29.58S
6HR MIN TEMP:  46; 6HR MAX TEMP:  53; 6HR PCP:  0.05;

OLATHE - OJC   CLOUDY    51  47  86 N8        29.57S
6HR MIN TEMP:  45; 6HR MAX TEMP:  52; 6HR PCP:  0.05;

LAWRENCE       CLOUDY    51  50  96 NW13      29.59S

$$

MOZ001>008-011>017-020>025-030>033-038>040-044>046-053-054-301900-
...NORTHERN AND CENTRAL MISSOURI...

CITY           SKY/WX    TMP DP  RH WIND       PRES   REMARKS
ST. JOSEPH     CLOUDY    48  46  93 N14       29.61S
6HR MIN TEMP:  46; 6HR MAX TEMP:  49; 6HR PCP:  0.04;

MOSBY          CLOUDY    52  43  71 CALM      29.57F
WARRENSBURG    CLOUDY    50  45  81 S3        29.57S
WHITEMAN AFB   PTSUNNY   54  52  93 S9        29.56S
6HR MIN TEMP:  44; 6HR MAX TEMP:  54; 6HR PCP: TRACE;

CLINTON        LGT RAIN  50  46  87 SW13G21   29.59S
SEDALIA        CLOUDY    53  44  71 SW14G20   29.59S
6HR MIN TEMP:  49; 6HR MAX TEMP:  54;

WARSAW         NOT AVBL
CHILLICOTHE      N/A     50  49  96 N7        29.59S
6HR MIN TEMP:  48; 6HR MAX TEMP:  51;

KIRKSVILLE     LGT RAIN  48  48 100 N12       29.58R FOG
6HR MIN TEMP:  48; 6HR MAX TEMP:  50; 6HR PCP: TRACE;


$$

MOZ041-047>049-056>058-063>065-088>090-097-301900-
...EASTERN AND SOUTHERN MISSOURI...

CITY           SKY/WX    TMP DP  RH WIND       PRES   REMARKS
ST. LOUIS INTL LGT RAIN  60  55  83 W12       29.54S
6HR MIN TEMP:  59; 6HR MAX TEMP:  71; 6HR PCP:  1.01;

SPIRIT OF STL  LGT RAIN  60  58  92 SW10      29.54R FOG
COLUMBIA       CLOUDY    56  48  74 SW10      29.57S
JEFFERSON CITY PTSUNNY   57  43  59 W14       29.57F
ROLLA          PTSUNNY   55  47  74 W13       29.56S
OSAGE BEACH    CLOUDY    53  42  66 SW12      29.60S
SPRINGFIELD    CLOUDY    49  43  80 SW18      29.61S
BRANSON        CLOUDY    48  39  71 W9        29.65F
JOPLIN         LGT RAIN  47  47 100 SW16G22   29.62S FOG
WEST PLAINS    CLOUDY    56  44  64 SW16G25   29.62R

$$

IAZ060-094-KSZ022-034>040-054-083-096-NEZ052-066-093-301900-
...KANSAS...SOUTHEAST NEBRASKA AND IOWA...

CITY           SKY/WX    TMP DP  RH WIND       PRES   REMARKS
TOPEKA         CLOUDY    48  46  93 N15       29.62R
6HR MIN TEMP:  47; 6HR MAX TEMP:  50; 6HR PCP: TRACE;

MANHATTAN      CLOUDY    45  41  86 N10G18    29.68S
EMPORIA        CLOUDY    45  43  93 NW17G24   29.64R
CHANUTE        LGT RAIN  50  47  89 W18G26    29.60R
WICHITA        CLOUDY    44  41  89 NW18      29.72S
OMAHA          CLOUDY    43  38  82 N17       29.70S
LINCOLN        CLOUDY    43  40  89 N17G24    29.72F
FALLS CITY     CLOUDY    45  42  89 N14       29.64R
LAMONI         CLOUDY    44  43  96 NE17      29.61S FOG
DES MOINES     DRIZZLE   44  42  93 NE13      29.68S FOG

$$




USA.gov is the U.S. government's official web portal to all federal, state and local government web resources and services.